Location: Newark
(7.0858°N, 171.3717°E)
Time: 11:38:34
(UTC+00:00)

Vanguard 1 Rocket - Pass Details

Date: 03 December 2020
Orbit: 655 x 4222 km, 34.3° (Epoch: 23 January)

Event Time Altitude Azimuth Distance (km) Brightness Sun altitude
Exits shadow 14:46:08 28° 13° (NNE) 5,372 11.0 -52.7°
Drops below altitude 10° 14:56:48 10° 45° (NE) 5,940 11.6 -50.4°
Sets 15:01:33 0° 56° (NE) 6,474 12.0 -49.3°
